{"data":{"norad_id":66641,"epoch":"2026-09-19T17:18:14.751648Z","epoch_age_seconds":153752,"freshness":"FRESH","line1":"1 66641U 25271AA  26262.72100407  .00017423  00000+0  52501-3 0  9991","line2":"2 66641  53.1577 317.2682 0001102  82.6809 277.4319 15.34434927 47296","mean_motion":15.34434927,"eccentricity":0.0001102,"inclination_deg":53.1577,"raan_deg":317.2682,"arg_perigee_deg":82.6809,"mean_anomaly_deg":277.4319,"bstar":0.00052501,"rev_number":4729,"period_min":93.845621906911,"perigee_km":461.84558261692,"apogee_km":463.35328092648,"semimajor_km":6840.7364317717,"source":"CELESTRAK","updated_at":"2026-09-21T09:00:35.987031Z"}}